This demonstration page uses our WeatherBlox Daily Observations layout. Learn more.

Left ArrowRight Arrow

39.01783, -85.05884

Hourly Observations for September 24, 2018

Temp ( °F °C ) Dew Point ( °F °C ) Humidity (%) Winds ( mph kmh ) Pressure ( in mb ) Visibility ( mi km ) Precip ( " mm )
12:52 am 00:52 Cloudy 64 17.8 59 15 84 84 E 9 15 30.09 1019 10 16 N/A
1:52 am 01:52 Cloudy 64 17.8 59 15 84 84 E 7 11 30.09 1019 10 16 N/A
2:42 am 02:42 Cloudy 63 17.2 60 15.6 90 90 E 8 13 30.09 1019 10 16 N/A
2:52 am 02:52 Cloudy 63 17.2 60 15.6 90 90 E 9 15 30.08 1019 10 16 N/A
3:52 am 03:52 Cloudy 63 17.2 61 16.1 93 93 E 5 7 30.07 1018 10 16 0.01 0.25
4:18 am 04:18 Cloudy with Heavy Rain 63 17.2 62 16.7 97 97 E 5 7 30.09 1019 3 4 0.02 0.51
4:52 am 04:52 Cloudy with Light Rain 62 16.7 62 16.7 100 100 E 6 9 30.08 1019 6 10 0.21 5.33
5:52 am 05:52 Cloudy with Light Rain 63 17.2 63 17.2 100 100 E 7 11 30.08 1019 8 13 0.01 0.25
6:41 am 06:41 Cloudy with Rain 63 17.2 63 17.2 100 100 E 8 13 30.09 1019 4 6 0.04 1.02
6:52 am 06:52 Cloudy with Light Rain 63 17.2 63 17.2 100 100 E 8 13 30.09 1019 5 8 0.07 1.78
7:23 am 07:23 Cloudy with Light Rain 63 17.2 63 17.2 100 100 ESE 6 9 30.12 1020 7 11 0.01 0.25
7:52 am 07:52 Cloudy with Light Rain 64 17.8 64 17.8 100 100 ESE 7 11 30.09 1019 6 10 0.04 1.02
8:10 am 08:10 Cloudy with Light Rain 64 17.8 64 17.8 100 100 ESE 7 11 30.12 1020 3 4 N/A
8:52 am 08:52 Cloudy with Mist and Fog 65 18.3 65 18.3 100 100 ESE 7 11 30.10 1019 2 3 N/A
8:55 am 08:55 Cloudy with Mist and Fog 65 18.3 65 18.3 100 100 ESE 7 11 30.12 1020 1 2 N/A
9:21 am 09:21 Cloudy with Light Rain 65 18.3 65 18.3 100 100 SE 9 15 30.12 1020 1 1 N/A
9:40 am 09:40 Cloudy with Light Rain 65 18.3 65 18.3 100 100 SSE 10 17 30.12 1020 2 2 0.01 0.25
9:52 am 09:52 Cloudy with Light Rain 66 18.9 66 18.9 100 100 SE 10 17 30.10 1019 2 2 0.05 1.27
10:01 am 10:01 Cloudy with Light Rain 66 18.9 66 18.9 100 100 SE 10 17 30.09 1019 3 5 0.01 0.25
10:02 am 10:02 Cloudy with Light Rain 66 18.9 66 18.9 100 100 SE 9 15 30.09 1019 3 5 0.01 0.25
10:52 am 10:52 Cloudy with Light Rain 66 19 66 19 100 100 SE 10 17 30.10 1019 3 5 0.10 2.54
11:37 am 11:37 Cloudy with Light Rain 67 19.4 67 19.4 100 100 SE 10 17 30.09 1019 3 5 0.10 2.54
11:52 am 11:52 Cloudy with Light Rain 68 20 68 20 100 100 SE 10 17 30.09 1019 3 5 0.13 3.30
12:31 pm 12:31 Cloudy with Light Rain 68 20 68 20 100 100 SSE 12 19 30.09 1019 3 5 0.07 1.78
12:52 pm 12:52 Cloudy with Light Rain 68 20 68 20 100 100 SE 10 17 30.09 1019 3 5 0.14 3.56
1:25 pm 13:25 Cloudy with Rain 69 20.6 69 20.6 100 100 SE 14 22 30.06 1018 3 5 0.11 2.79
1:52 pm 13:52 Cloudy with Light Rain 70 21.1 69 20.6 97 97 SE 15 24 30.06 1018 3 5 0.15 3.81
2:12 pm 14:12 Cloudy with Light Rain 70 21.1 69 20.6 97 97 SE 16 26 30.03 1017 3 5 0.03 0.76
2:52 pm 14:52 Cloudy with Light Rain 70 21.1 69 20.6 97 97 SE 14 22 30.02 1017 3 5 0.13 3.30
3:42 pm 15:42 Cloudy with Rain 70 21.1 69 20.6 97 97 SSE 16 26 30.00 1016 2 3 0.07 1.78
3:52 pm 15:52 Cloudy with Light Rain 70 21.1 69 20.6 97 97 SSE 13 20 30.01 1016 3 5 0.12 3.05
4:52 pm 16:52 Cloudy with Light Rain 70 21.1 69 20.6 97 97 SSE 21 33 30.00 1016 7 11 0.04 1.02
5:36 pm 17:36 Cloudy with Heavy Rain 69 20.6 68 20 96 96 SSE 18 30 30.00 1016 2 2 0.04 1.02
5:52 pm 17:52 Cloudy with Light Rain 69 20.6 68 20 96 96 SSE 18 30 30.00 1016 2 3 0.13 3.30
6:16 pm 18:16 Cloudy with Light Rain 69 20.6 68 20 96 96 SSE 17 28 30.00 1016 3 5 0.02 0.51
6:52 pm 18:52 Cloudy 69 20.6 68 20 96 96 S 13 20 30.00 1016 10 16 0.02 0.51
7:19 pm 19:19 Cloudy 69 20.6 68 20 96 96 SSE 14 22 30.00 1016 10 16 N/A
7:52 pm 19:52 Cloudy 69 20.6 68 20 96 96 S 14 22 29.99 1016 10 16 N/A
8:52 pm 20:52 Cloudy 69 20.6 68 20 96 96 S 13 20 30.01 1016 7 11 N/A
9:52 pm 21:52 Cloudy 69 20.6 68 20 96 96 S 12 19 30.02 1017 10 16 N/A
10:52 pm 22:52 Cloudy 69 20.6 69 20.6 100 100 S 13 20 30.03 1017 10 16 N/A
11:52 pm 23:52 Cloudy 69 20.6 69 20.6 100 100 S 13 20 30.04 1017 10 16 N/A

Powered by AerisWeather